Flag for U.S.A. Weather past 2 weeks in Post Falls, Idaho, U.S.A.

Now
66 °F

Sunny.


Feels Like: 66 °F
Forecast: 51 / 84 °F
Wind: 6 mph from South

Location: Coeur d'Alene Weather Reporting System

Current Time: Jul 25, 2014 at 9:11:14 PM

Latest Report: Jul 25, 2014 at 8:55 PM


Visibility: 10 mi

Pressure: 30.05 "Hg

Humidity: 43%

Dew point: 43 °F

Location of Post FallsLocation

Historic Weather in Post Falls — Graph

°F

Post Falls temperature yesterday

Maximum temperature yesterday: 66 °F (at 6:35 PM)
Minimum temperature yesterday: 52 °F (at 4:35 AM)
Average temperature yesterday: 59 °F

Past Weeks' High & Low Weather Summary

 TemperatureHumidityPressure
High97 °F (Jul 13, 2:55 PM)94% (Jul 24, 1:55 AM)30.16 "Hg (Jul 24, 1:55 AM)
Low50 °F (Jul 25, 6:15 AM)11% (Jul 21, 5:55 AM)29.74 "Hg (Jul 17, 7:55 PM)
Average72 °F52%29.98 "Hg
* Reported Jul 10 7:15 PM — Jul 25 7:55 PM, Post Falls, Weather by CustomWeather, © 2014

Note: Actual official high and low records may vary slightly from our data, if they occured in-between our weather recording intervals... More about our weather records

Advertising

Post Falls weather history for previous 24 hours

 ConditionsComfort  
Time TempWeatherWind HumidityBarometerVisibility
7:55 PM
Jul 25
73 °FSunny.No wind33%30.03 "Hg10 mi
7:35 PM73 °FSunny.No wind33%30.03 "Hg10 mi
7:15 PM73 °FSunny.No wind31%30.03 "Hg10 mi
6:55 PM73 °FSunny.No wind31%30.03 "Hg10 mi
6:35 PM73 °FSunny.No wind33%30.04 "Hg10 mi
6:15 PM73 °FSunny.3 mph31%30.04 "Hg10 mi
5:55 PM75 °FSunny.7 mph31%30.04 "Hg10 mi
5:35 PM75 °FSunny.9 mph31%30.04 "Hg10 mi
4:55 PM75 °FSunny.7 mph31%30.05 "Hg10 mi
4:35 PM75 °FSunny.9 mph31%30.05 "Hg10 mi
4:15 PM75 °FSunny.7 mph31%30.05 "Hg10 mi
3:55 PM75 °FSunny.10 mph31%30.05 "Hg10 mi
3:35 PM73 °FSunny.3 mph33%30.05 "Hg10 mi
3:15 PM73 °FSunny.8 mph36%30.06 "Hg10 mi
2:55 PM75 °FSunny.9 mph34%30.06 "Hg10 mi
2:35 PM73 °FPassing clouds.3 mph36%30.06 "Hg10 mi
2:15 PM72 °FScattered clouds.3 mph44%30.06 "Hg10 mi
1:55 PM72 °FPartly sunny.7 mph38%30.07 "Hg10 mi
1:35 PM72 °FPartly sunny.3 mph38%30.07 "Hg10 mi
1:15 PM72 °FPartly sunny.5 mph41%30.07 "Hg10 mi
12:55 PM70 °FPartly sunny.No wind40%30.07 "Hg10 mi
12:35 PM68 °FPartly sunny.7 mph43%30.08 "Hg10 mi
12:15 PM70 °FScattered clouds.No wind40%30.07 "Hg10 mi
11:55 AM70 °FScattered clouds.7 mph43%30.09 "Hg10 mi
11:35 AM68 °FPartly sunny.6 mph46%30.09 "Hg10 mi
11:15 AM66 °FScattered clouds.6 mph49%30.09 "Hg10 mi
10:55 AM66 °FBroken clouds.8 mph49%30.10 "Hg10 mi
10:35 AM64 °FScattered clouds.No wind52%30.10 "Hg10 mi
10:15 AM64 °FSunny.No wind52%30.10 "Hg10 mi
9:55 AM63 °FSunny.No wind56%30.08 "Hg10 mi
9:35 AM63 °FSunny.3 mph56%30.11 "Hg10 mi
9:15 AM61 °FSunny.5 mph59%30.11 "Hg10 mi
8:55 AM61 °FSunny.No wind59%30.09 "Hg10 mi
8:35 AM57 °FSunny.No wind67%30.11 "Hg10 mi
7:55 AM57 °FSunny.5 mph67%30.11 "Hg10 mi
7:35 AM57 °FSunny.7 mph67%30.10 "Hg10 mi
7:15 AM55 °FSunny.5 mph72%30.10 "Hg10 mi
6:55 AM55 °FSunny.3 mph72%30.10 "Hg10 mi
6:35 AM52 °FSunny.No wind77%30.09 "Hg10 mi
6:15 AM50 °FPassing clouds.3 mph82%30.09 "Hg10 mi
5:35 AM52 °FOvercast.No wind82%30.07 "Hg10 mi
5:15 AM52 °FOvercast.3 mph82%30.07 "Hg10 mi
4:55 AM52 °FOvercast.5 mph82%30.06 "Hg10 mi
4:35 AM54 °FOvercast.3 mph77%30.06 "Hg10 mi
4:15 AM55 °FOvercast.No wind72%30.03 "Hg10 mi
3:55 AM55 °FPassing clouds.6 mph72%30.05 "Hg10 mi
3:35 AM55 °FPassing clouds.7 mph72%30.05 "Hg10 mi
3:15 AM55 °FPassing clouds.6 mph72%30.05 "Hg10 mi
2:55 AM54 °FPassing clouds.No wind72%30.06 "Hg10 mi
2:35 AM54 °FPassing clouds.No wind72%30.06 "Hg10 mi
1:55 AM54 °FPassing clouds.No wind58%30.07 "Hg10 mi
1:35 AM55 °FClear.No wind72%30.07 "Hg10 mi
1:15 AM57 °FPassing clouds.3 mph67%30.06 "Hg10 mi
12:55 AM55 °FPassing clouds.5 mph67%30.07 "Hg10 mi
12:35 AM57 °FClear.6 mph67%30.07 "Hg10 mi
12:15 AM61 °FPassing clouds.5 mph59%30.06 "Hg10 mi
11:55 PM
Jul 24
61 °FOvercast.8 mph63%30.07 "Hg10 mi
11:35 PM63 °FOvercast.8 mph56%30.07 "Hg10 mi
11:15 PM63 °FOvercast.7 mph59%30.07 "Hg10 mi
10:55 PM63 °FOvercast.9 mph56%30.07 "Hg10 mi
10:35 PM63 °FOvercast.6 mph56%30.07 "Hg10 mi
10:15 PM63 °FOvercast.8 mph59%30.07 "Hg10 mi
9:55 PM63 °FOvercast.7 mph56%30.07 "Hg10 mi
9:35 PM63 °FPassing clouds.7 mph52%30.07 "Hg10 mi
9:15 PM61 °FScattered clouds.8 mph55%30.07 "Hg10 mi
Weather by CustomWeather, © 2014

See weather overviewHow to use our weather pages